Time,TemperatureF,DewpointF,PressureIn,WindDirection,WindDirectionDegrees,WindSpeedMPH,WindSpeedGustMPH,Humidity,HourlyPrecipIn,Conditions,Clouds,dailyrainin,SoftwareType,DateUTC
2013-03-06 00:02:00,31.0,26.0,-100.00,NE,40,0.0,1.0,83,0.00,,,-99.99,,2013-03-06 05:02:00,
2013-03-06 00:11:00,31.0,27.0,-100.00,ENE,70,1.0,2.0,83,0.00,,,-99.99,,2013-03-06 05:11:00,
2013-03-06 00:22:00,31.0,27.0,-100.00,West,280,1.0,2.0,85,0.00,,,-99.99,,2013-03-06 05:22:00,
2013-03-06 00:32:00,32.0,27.0,-100.00,ENE,65,3.0,4.0,83,0.00,,,-99.99,,2013-03-06 05:32:00,
2013-03-06 00:42:00,32.0,27.0,-100.00,ENE,75,3.0,5.0,82,0.00,,,-99.99,,2013-03-06 05:42:00,
2013-03-06 00:52:00,31.0,27.0,-100.00,East,80,4.0,6.0,84,0.00,,,-99.99,,2013-03-06 05:52:00,
2013-03-06 01:02:00,31.0,27.0,-100.00,ENE,65,4.0,5.0,85,0.00,,,-99.99,,2013-03-06 06:02:00,
2013-03-06 01:11:00,32.0,28.0,-100.00,ENE,65,6.0,7.0,85,0.00,,,-99.99,,2013-03-06 06:11:00,
2013-03-06 01:22:00,32.0,28.0,-100.00,ENE,60,6.0,9.0,84,0.00,,,-99.99,,2013-03-06 06:22:00,
2013-03-06 01:32:00,32.0,29.0,-100.00,NE,55,7.0,11.0,88,0.00,,,-99.99,,2013-03-06 06:32:00,
2013-03-06 01:42:00,32.0,29.0,-100.00,ENE,70,6.0,10.0,91,0.00,,,-99.99,,2013-03-06 06:42:00,
2013-03-06 01:52:00,31.0,29.0,-100.00,ENE,70,4.0,9.0,92,0.00,,,-99.99,,2013-03-06 06:52:00,
2013-03-06 02:01:00,31.0,29.0,-100.00,ENE,65,3.0,7.0,92,0.00,,,-99.99,,2013-03-06 07:01:00,
2013-03-06 02:22:00,31.0,29.0,-100.00,ENE,65,6.0,9.0,92,0.00,,,-99.99,,2013-03-06 07:22:00,
2013-03-06 02:32:00,32.0,30.0,-100.00,ENE,65,7.0,11.0,93,0.00,,,-99.99,,2013-03-06 07:32:00,
2013-03-06 02:42:00,32.0,30.0,-100.00,ENE,70,4.0,9.0,92,0.00,,,-99.99,,2013-03-06 07:42:00,
2013-03-06 02:52:00,32.0,30.0,-100.00,ENE,65,6.0,10.0,92,0.00,,,-99.99,,2013-03-06 07:52:00,
2013-03-06 03:01:00,31.0,30.0,-100.00,ENE,65,4.0,6.0,93,0.00,,,-99.99,,2013-03-06 08:01:00,
2013-03-06 03:11:00,32.0,30.0,-100.00,ENE,70,4.0,9.0,93,0.00,,,-99.99,,2013-03-06 08:11:00,
2013-03-06 03:21:00,32.0,30.0,-100.00,ENE,60,4.0,9.0,92,0.00,,,-99.99,,2013-03-06 08:21:00,
2013-03-06 03:32:00,32.0,30.0,-100.00,ENE,75,6.0,9.0,91,0.00,,,-99.99,,2013-03-06 08:32:00,
2013-03-06 03:42:00,33.0,30.0,-100.00,NE,55,4.0,9.0,90,0.00,,,-99.99,,2013-03-06 08:42:00,
2013-03-06 03:52:00,33.0,30.0,-100.00,ENE,65,8.0,11.0,92,0.00,,,-99.99,,2013-03-06 08:52:00,
2013-03-06 04:01:00,32.0,31.0,-100.00,NE,55,6.0,12.0,94,0.00,,,-99.99,,2013-03-06 09:01:00,
2013-03-06 04:12:00,32.0,31.0,-100.00,ENE,60,4.0,7.0,95,0.00,,,-99.99,,2013-03-06 09:12:00,
2013-03-06 04:21:00,32.0,31.0,-100.00,ENE,70,5.0,9.0,96,0.00,,,-99.99,,2013-03-06 09:21:00,
2013-03-06 04:32:00,32.0,31.0,-100.00,NE,55,10.0,16.0,96,0.00,,,-99.99,,2013-03-06 09:32:00,
2013-03-06 04:42:00,32.0,31.0,-100.00,NE,55,8.0,13.0,93,0.00,,,-99.99,,2013-03-06 09:42:00,
2013-03-06 04:51:00,32.0,31.0,-100.00,ENE,60,9.0,12.0,93,0.00,,,-99.99,,2013-03-06 09:51:00,
2013-03-06 05:01:00,32.0,31.0,-100.00,ENE,60,9.0,12.0,94,0.00,,,-99.99,,2013-03-06 10:01:00,
2013-03-06 05:11:00,32.0,30.0,-100.00,ENE,60,7.0,14.0,94,0.00,,,-99.99,,2013-03-06 10:11:00,
2013-03-06 05:22:00,32.0,31.0,-100.00,NE,55,6.0,12.0,95,0.00,,,-99.99,,2013-03-06 10:22:00,
2013-03-06 05:32:00,32.0,31.0,-100.00,ENE,65,9.0,11.0,95,0.00,,,-99.99,,2013-03-06 10:32:00,
2013-03-06 05:42:00,32.0,31.0,-100.00,ENE,65,9.0,13.0,96,0.00,,,-99.99,,2013-03-06 10:42:00,
2013-03-06 05:52:00,32.0,31.0,-100.00,ENE,65,7.0,13.0,95,0.00,,,-99.99,,2013-03-06 10:52:00,
2013-03-06 06:02:00,32.0,30.0,-100.00,ENE,65,7.0,11.0,95,0.00,,,-99.99,,2013-03-06 11:02:00,
2013-03-06 06:11:00,32.0,31.0,-100.00,ENE,70,7.0,11.0,96,0.00,,,-99.99,,2013-03-06 11:11:00,
2013-03-06 06:22:00,31.0,31.0,-100.00,ENE,70,7.0,12.0,96,0.00,,,-99.99,,2013-03-06 11:22:00,
2013-03-06 06:32:00,31.0,31.0,-100.00,ENE,65,7.0,11.0,97,0.00,,,-99.99,,2013-03-06 11:32:00,
2013-03-06 06:42:00,31.0,31.0,-100.00,NE,55,6.0,12.0,97,0.00,,,-99.99,,2013-03-06 11:42:00,
2013-03-06 06:52:00,31.0,31.0,-100.00,ENE,65,9.0,14.0,97,0.00,,,-99.99,,2013-03-06 11:52:00,
2013-03-06 07:02:00,32.0,31.0,-100.00,ENE,60,7.0,11.0,97,0.00,,,-99.99,,2013-03-06 12:02:00,
2013-03-06 07:11:00,32.0,31.0,-100.00,ENE,60,7.0,11.0,96,0.00,,,-99.99,,2013-03-06 12:11:00,
2013-03-06 07:22:00,32.0,31.0,-100.00,ENE,65,7.0,10.0,96,0.00,,,-99.99,,2013-03-06 12:22:00,
2013-03-06 07:33:00,32.0,31.0,-100.00,ENE,65,6.0,9.0,97,0.01,,,-99.99,,2013-03-06 12:33:00,
2013-03-06 07:42:00,32.0,31.0,-100.00,ENE,65,9.0,14.0,97,0.00,,,-99.99,,2013-03-06 12:42:00,
2013-03-06 07:52:00,32.0,31.0,-100.00,NE,55,9.0,15.0,97,0.00,,,-99.99,,2013-03-06 12:52:00,
2013-03-06 08:02:00,32.0,31.0,-100.00,ENE,60,10.0,15.0,97,0.01,,,-99.99,,2013-03-06 13:02:00,
2013-03-06 08:12:00,32.0,31.0,-100.00,ENE,60,9.0,16.0,97,0.00,,,-99.99,,2013-03-06 13:12:00,
2013-03-06 08:22:00,32.0,31.0,-100.00,ENE,60,11.0,17.0,98,0.00,,,-99.99,,2013-03-06 13:22:00,
2013-03-06 08:32:00,32.0,31.0,-100.00,ENE,60,11.0,18.0,97,0.00,,,-99.99,,2013-03-06 13:32:00,
2013-03-06 08:42:00,32.0,31.0,-100.00,ENE,60,13.0,22.0,97,0.00,,,-99.99,,2013-03-06 13:42:00,
2013-03-06 08:52:00,32.0,31.0,-100.00,NE,55,13.0,22.0,96,0.00,,,-99.99,,2013-03-06 13:52:00,
2013-03-06 09:02:00,32.0,31.0,-100.00,ENE,65,16.0,21.0,96,0.00,,,-99.99,,2013-03-06 14:02:00,
2013-03-06 09:11:00,33.0,31.0,-100.00,NE,55,17.0,28.0,94,0.00,,,-99.99,,2013-03-06 14:11:00,
2013-03-06 09:22:00,33.0,31.0,-100.00,ENE,60,16.0,23.0,92,0.00,,,-99.99,,2013-03-06 14:22:00,
2013-03-06 09:32:00,33.0,31.0,-100.00,NE,55,15.0,24.0,91,0.00,,,-99.99,,2013-03-06 14:32:00,
2013-03-06 09:42:00,33.0,30.0,-100.00,NE,55,16.0,26.0,87,0.00,,,-99.99,,2013-03-06 14:42:00,
2013-03-06 09:52:00,33.0,29.0,-100.00,ENE,60,17.0,23.0,85,0.00,,,-99.99,,2013-03-06 14:52:00,
2013-03-06 10:02:00,33.0,29.0,-100.00,NE,50,16.0,31.0,86,0.00,,,-99.99,,2013-03-06 15:02:00,
2013-03-06 10:11:00,33.0,30.0,-100.00,NE,55,17.0,22.0,89,0.00,,,-99.99,,2013-03-06 15:11:00,
2013-03-06 10:22:00,33.0,30.0,-100.00,NE,55,14.0,26.0,88,0.00,,,-99.99,,2013-03-06 15:22:00,
2013-03-06 10:32:00,33.0,30.0,-100.00,North,-999,-999.0,-999.0,89,0.00,,,-99.99,,2013-03-06 15:32:00,
2013-03-06 10:42:00,33.0,30.0,-100.00,ENE,60,14.0,20.0,90,0.00,,,-99.99,,2013-03-06 15:42:00,
2013-03-06 10:52:00,33.0,30.0,-100.00,NE,55,16.0,22.0,90,0.00,,,-99.99,,2013-03-06 15:52:00,
2013-03-06 11:02:00,33.0,30.0,-100.00,ENE,60,15.0,21.0,90,0.00,,,-99.99,,2013-03-06 16:02:00,
2013-03-06 11:11:00,33.0,30.0,-100.00,ENE,70,12.0,21.0,90,0.00,,,-99.99,,2013-03-06 16:11:00,
2013-03-06 11:21:00,33.0,30.0,-100.00,ENE,60,13.0,24.0,88,0.00,,,-99.99,,2013-03-06 16:21:00,
2013-03-06 11:32:00,33.0,30.0,-100.00,ENE,60,14.0,20.0,88,0.00,,,-99.99,,2013-03-06 16:32:00,
2013-03-06 11:42:00,33.0,29.0,-100.00,ENE,65,11.0,21.0,85,0.00,,,-99.99,,2013-03-06 16:42:00,
2013-03-06 11:52:00,33.0,28.0,-100.00,ENE,60,17.0,29.0,81,0.00,,,-99.99,,2013-03-06 16:52:00,
2013-03-06 12:01:00,34.0,28.0,-100.00,ENE,60,16.0,22.0,80,0.00,,,-99.99,,2013-03-06 17:01:00,
2013-03-06 12:11:00,34.0,28.0,-100.00,NE,55,13.0,24.0,78,0.00,,,-99.99,,2013-03-06 17:11:00,
2013-03-06 12:22:00,33.0,28.0,-100.00,NE,50,10.0,24.0,79,0.00,,,-99.99,,2013-03-06 17:22:00,
2013-03-06 12:32:00,34.0,27.0,-100.00,NE,55,13.0,19.0,78,0.00,,,-99.99,,2013-03-06 17:32:00,
2013-03-06 12:42:00,34.0,28.0,-100.00,ENE,60,10.0,18.0,78,0.00,,,-99.99,,2013-03-06 17:42:00,
2013-03-06 12:52:00,33.0,27.0,-100.00,ENE,65,18.0,30.0,78,0.00,,,-99.99,,2013-03-06 17:52:00,
2013-03-06 13:02:00,34.0,28.0,-100.00,ENE,60,11.0,17.0,80,0.00,,,-99.99,,2013-03-06 18:02:00,
2013-03-06 13:28:00,33.0,28.0,-100.00,ENE,65,13.0,21.0,80,0.00,,,-99.99,,2013-03-06 18:28:00,
2013-03-06 13:42:00,34.0,27.0,-100.00,ENE,60,14.0,23.0,76,0.00,,,-99.99,,2013-03-06 18:42:00,
2013-03-06 13:52:00,34.0,27.0,-100.00,ENE,60,12.0,22.0,74,0.00,,,-99.99,,2013-03-06 18:52:00,
2013-03-06 14:02:00,34.0,27.0,-100.00,ENE,60,10.0,22.0,73,0.00,,,-99.99,,2013-03-06 19:02:00,
2013-03-06 14:11:00,34.0,26.0,-100.00,ENE,60,11.0,18.0,73,0.00,,,-99.99,,2013-03-06 19:11:00,
2013-03-06 14:22:00,34.0,27.0,-100.00,ENE,60,12.0,17.0,74,0.00,,,-99.99,,2013-03-06 19:22:00,
2013-03-06 14:32:00,33.0,27.0,-100.00,ENE,60,12.0,22.0,78,0.00,,,-99.99,,2013-03-06 19:32:00,
2013-03-06 14:43:00,33.0,27.0,-100.00,ENE,60,14.0,21.0,79,0.00,,,-99.99,,2013-03-06 19:43:00,
2013-03-06 14:52:00,33.0,28.0,-100.00,ENE,60,11.0,22.0,79,0.00,,,-99.99,,2013-03-06 19:52:00,
2013-03-06 15:02:00,33.0,28.0,-100.00,ENE,65,11.0,24.0,79,0.00,,,-99.99,,2013-03-06 20:02:00,
2013-03-06 15:12:00,33.0,28.0,-100.00,ENE,65,11.0,24.0,79,0.00,,,-99.99,,2013-03-06 20:12:00,
2013-03-06 15:22:00,33.0,28.0,-100.00,ENE,65,11.0,24.0,79,0.00,,,-99.99,,2013-03-06 20:22:00,
2013-03-06 15:32:00,33.0,29.0,-100.00,ENE,65,13.0,20.0,86,0.00,,,-99.99,,2013-03-06 20:32:00,
2013-03-06 15:42:00,32.0,29.0,-100.00,NE,55,10.0,17.0,90,0.00,,,-99.99,,2013-03-06 20:42:00,
2013-03-06 15:53:00,32.0,29.0,-100.00,ENE,65,11.0,16.0,90,0.00,,,-99.99,,2013-03-06 20:53:00,
2013-03-06 16:02:00,33.0,29.0,-100.00,ENE,70,12.0,19.0,86,0.00,,,-99.99,,2013-03-06 21:02:00,
2013-03-06 16:12:00,33.0,28.0,-100.00,ENE,60,10.0,22.0,82,0.00,,,-99.99,,2013-03-06 21:12:00,
2013-03-06 16:22:00,33.0,27.0,-100.00,ENE,65,14.0,27.0,76,0.00,,,-99.99,,2013-03-06 21:22:00,
2013-03-06 16:32:00,33.0,27.0,-100.00,NE,55,12.0,20.0,76,0.00,,,-99.99,,2013-03-06 21:32:00,
2013-03-06 16:42:00,33.0,26.0,-100.00,ENE,60,14.0,22.0,75,0.00,,,-99.99,,2013-03-06 21:42:00,
2013-03-06 16:51:00,33.0,27.0,-100.00,NE,55,9.0,17.0,77,0.00,,,-99.99,,2013-03-06 21:51:00,
2013-03-06 17:02:00,33.0,26.0,-100.00,ENE,65,10.0,17.0,77,0.00,,,-99.99,,2013-03-06 22:02:00,
2013-03-06 17:11:00,32.0,26.0,-100.00,NE,55,11.0,22.0,78,0.00,,,-99.99,,2013-03-06 22:11:00,
2013-03-06 17:22:00,32.0,26.0,-100.00,ENE,60,11.0,16.0,78,0.00,,,-99.99,,2013-03-06 22:22:00,
2013-03-06 17:32:00,32.0,25.0,-100.00,ENE,75,11.0,26.0,74,0.00,,,-99.99,,2013-03-06 22:32:00,
2013-03-06 17:42:00,32.0,25.0,-100.00,ENE,60,11.0,20.0,74,0.00,,,-99.99,,2013-03-06 22:42:00,
2013-03-06 17:51:00,32.0,25.0,-100.00,ENE,60,12.0,21.0,74,0.00,,,-99.99,,2013-03-06 22:51:00,
2013-03-06 18:01:00,32.0,25.0,-100.00,NE,55,19.0,26.0,76,0.00,,,-99.99,,2013-03-06 23:01:00,
2013-03-06 18:11:00,31.0,25.0,-100.00,ENE,60,11.0,19.0,78,0.00,,,-99.99,,2013-03-06 23:11:00,
2013-03-06 18:21:00,31.0,25.0,-100.00,ENE,65,11.0,17.0,77,0.00,,,-99.99,,2013-03-06 23:21:00,
2013-03-06 18:32:00,31.0,25.0,-100.00,ENE,60,15.0,28.0,78,0.00,,,-99.99,,2013-03-06 23:32:00,
2013-03-06 18:42:00,31.0,25.0,-100.00,NE,50,12.0,22.0,79,0.00,,,-99.99,,2013-03-06 23:42:00,
2013-03-06 18:52:00,31.0,25.0,-100.00,ENE,70,11.0,21.0,79,0.00,,,-99.99,,2013-03-06 23:52:00,
2013-03-06 19:02:00,31.0,25.0,-100.00,ENE,65,9.0,17.0,80,0.00,,,-99.99,,2013-03-07 00:02:00,
2013-03-06 19:11:00,31.0,25.0,-100.00,NE,55,11.0,24.0,79,0.00,,,-99.99,,2013-03-07 00:11:00,
2013-03-06 19:21:00,31.0,25.0,-100.00,NE,50,8.0,20.0,79,0.00,,,-99.99,,2013-03-07 00:21:00,
2013-03-06 19:32:00,31.0,25.0,-100.00,NE,55,9.0,17.0,80,0.00,,,-99.99,,2013-03-07 00:32:00,
2013-03-06 19:42:00,31.0,26.0,-100.00,ENE,60,11.0,24.0,81,0.00,,,-99.99,,2013-03-07 00:42:00,
2013-03-06 19:52:00,30.0,26.0,-100.00,ENE,70,11.0,15.0,83,0.00,,,-99.99,,2013-03-07 00:52:00,
2013-03-06 20:01:00,30.0,26.0,-100.00,ENE,65,14.0,23.0,84,0.00,,,-99.99,,2013-03-07 01:01:00,
2013-03-06 20:11:00,30.0,26.0,-100.00,ENE,65,12.0,20.0,84,0.00,,,-99.99,,2013-03-07 01:11:00,
2013-03-06 20:21:00,30.0,26.0,-100.00,ENE,60,10.0,17.0,83,0.00,,,-99.99,,2013-03-07 01:21:00,
2013-03-06 20:32:00,30.0,26.0,-100.00,ENE,60,9.0,24.0,83,0.00,,,-99.99,,2013-03-07 01:32:00,
2013-03-06 20:42:00,30.0,26.0,-100.00,ENE,70,7.0,17.0,83,0.00,,,-99.99,,2013-03-07 01:42:00,
2013-03-06 20:51:00,30.0,25.0,-100.00,ENE,60,10.0,21.0,82,0.00,,,-99.99,,2013-03-07 01:51:00,
2013-03-06 21:01:00,30.0,25.0,-100.00,ENE,65,9.0,15.0,81,0.00,,,-99.99,,2013-03-07 02:01:00,
2013-03-06 21:11:00,30.0,25.0,-100.00,ENE,60,11.0,26.0,81,0.00,,,-99.99,,2013-03-07 02:11:00,
2013-03-06 21:21:00,30.0,25.0,-100.00,ENE,60,10.0,19.0,80,0.00,,,-99.99,,2013-03-07 02:21:00,
2013-03-06 21:32:00,30.0,25.0,-100.00,ENE,65,12.0,19.0,80,0.00,,,-99.99,,2013-03-07 02:32:00,
2013-03-06 21:41:00,30.0,25.0,-100.00,ENE,65,12.0,19.0,80,0.00,,,-99.99,,2013-03-07 02:41:00,
2013-03-06 21:52:00,30.0,25.0,-100.00,ENE,65,12.0,19.0,80,0.00,,,-99.99,,2013-03-07 02:52:00,
2013-03-06 22:02:00,30.0,25.0,-100.00,ENE,65,9.0,16.0,79,0.00,,,-99.99,,2013-03-07 03:02:00,
2013-03-06 22:11:00,30.0,25.0,-100.00,North,-999,-999.0,-999.0,79,0.00,,,-99.99,,2013-03-07 03:11:00,
2013-03-06 22:21:00,30.0,25.0,-100.00,ENE,60,9.0,17.0,79,0.00,,,-99.99,,2013-03-07 03:21:00,
2013-03-06 22:32:00,30.0,25.0,-100.00,ENE,60,12.0,21.0,79,0.00,,,-99.99,,2013-03-07 03:32:00,
2013-03-06 22:42:00,30.0,25.0,-100.00,ENE,70,11.0,19.0,80,0.00,,,-99.99,,2013-03-07 03:42:00,
2013-03-06 22:52:00,30.0,25.0,-100.00,ENE,65,11.0,18.0,80,0.00,,,-99.99,,2013-03-07 03:52:00,
2013-03-06 23:01:00,30.0,25.0,-100.00,ENE,65,10.0,17.0,80,0.00,,,-99.99,,2013-03-07 04:01:00,
2013-03-06 23:11:00,30.0,25.0,-100.00,ENE,65,13.0,19.0,80,0.00,,,-99.99,,2013-03-07 04:11:00,
2013-03-06 23:22:00,30.0,25.0,-100.00,ENE,70,9.0,16.0,80,0.00,,,-99.99,,2013-03-07 04:22:00,
2013-03-06 23:32:00,30.0,25.0,-100.00,NE,55,7.0,17.0,80,0.00,,,-99.99,,2013-03-07 04:32:00,
2013-03-06 23:42:00,30.0,25.0,-100.00,ENE,70,9.0,14.0,80,0.00,,,-99.99,,2013-03-07 04:42:00,
2013-03-06 23:52:00,30.0,25.0,-100.00,NE,55,11.0,17.0,81,0.00,,,-99.99,,2013-03-07 04:52:00,